Location: Potomac
(46.8816°N, 113.5795°W)
Time: 19:32:08
(UTC+00:00)

QB50P2 - Visible Passes

Search period start: 26 June 2022 00:00
Search period end: 06 July 2022 00:00
Orbit: 589 x 607 km, 97.9° (Epoch: 26 June)

Date Brightness Start Highest point End Pass type
(mag) Time Alt. Az. Time Alt. Az. Time Alt. Az.
26 Jun ? 08:53:52 10° NNE 08:58:05 66° E 08:59:54 32° S visible
26 Jun ? 10:30:53 10° NNW 10:33:16 15° WNW 10:35:37 10° W visible
27 Jun ? 09:04:19 10° NNE 09:08:34 85° ESE 09:10:29 32° S visible
27 Jun ? 10:41:59 10° NW 10:43:36 12° WNW 10:45:12 10° W visible
28 Jun ? 07:41:26 10° ENE 07:42:52 11° E 07:44:17 10° ESE visible
28 Jun ? 09:14:48 10° N 09:19:03 76° WNW 09:21:03 30° SSW visible
29 Jun ? 07:51:03 10° NE 07:53:27 15° E 07:54:55 13° ESE visible
29 Jun ? 09:25:19 10° N 09:29:29 59° WNW 09:31:38 27° SW visible
30 Jun ? 08:01:01 10° NE 08:04:02 19° E 08:05:29 16° ESE visible
30 Jun ? 09:35:52 10° N 09:39:55 46° WNW 09:42:12 23° SW visible
01 Jul ? 08:11:10 10° NE 08:14:35 23° E 08:16:03 20° ESE visible
01 Jul ? 09:46:27 10° N 09:50:20 36° WNW 09:52:45 19° WSW visible
02 Jul ? 08:21:23 10° NE 08:25:07 29° E 08:26:37 24° SE visible
02 Jul ? 09:57:04 10° N 10:00:44 29° WNW 10:03:19 16° WSW visible
03 Jul ? 08:31:41 10° NNE 08:35:39 37° E 08:37:10 28° SE visible
03 Jul ? 10:07:44 10° NNW 10:11:07 23° WNW 10:13:52 13° WSW visible
04 Jul ? 08:42:01 10° NNE 08:46:09 48° E 08:47:43 32° SSE visible
04 Jul ? 10:18:28 10° NNW 10:21:28 19° WNW 10:24:25 10° WSW visible
05 Jul ? 08:52:24 10° NNE 08:56:38 63° ESE 08:58:16 35° S visible
05 Jul ? 10:29:17 10° NNW 10:31:49 16° WNW 10:34:20 10° W visible
